Regional Weather Roundup
Issued by NWS

Home | Current Version | Previous Version | Graphics & Text | Print | Product List | Glossary On
Versions: 1 2 3 4 5 6 7 8 9 10 11 12 13 14 15 16 17 18 19 20 21 22 23 24 25 26 27 28 29 30 31 32 33 34 35 36 37 38 39 40 41 42 43 44 45 46 47 48 49 50
000
ASUS43 KDMX 201906
RWRIA

WEATHER ROUNDUP FOR IOWA
NATIONAL WEATHER SERVICE DES MOINES IA
100 PM CST MON NOV 20 2017

NOTE: "FAIR" INDICATES FEW OR NO CLOUDS BELOW 12,000 FEET WITH NO
SIGNIFICANT WEATHER AND/OR OBSTRUCTIONS TO VISIBILITY.

* - THESE STATIONS ARE NOT NWS STATIONS...THUS NOT UNDER NWS
QUALITY CONTROL.  THEY ALSO DO NOT REPORT WEATHER SUCH
AS PRECIPITATION OR FOG.

IAZ001>003-012>014-020>022-031>034-043>046-202000-
   NORTHWEST IOWA

CITY           SKY/WX    TMP DP  RH WIND       PRES   REMARKS
CARROLL *      CLOUDY    54  28  37 SW24G32   29.58F
CHEROKEE *     CLOUDY    49  28  44 SW12G18   29.55S
DENISON *      CLOUDY    54  27  35 S21       29.59F
LE MARS *      CLOUDY    50  28  43 S17       29.55F
ORANGE CITY *  CLOUDY    46  30  53 SW10      29.55S
SHELDON *      CLOUDY    46  27  46 SW16      29.52S
SIOUX CITY     CLOUDY    51  29  42 SW13      29.58F
SPENCER        CLOUDY    49  27  42 SW15      29.52F
STORM LAKE *   CLOUDY    54  27  35 SW21G26   29.54F
$$

IAZ055>058-069>071-079>083-090>094-202000-
   SOUTHWEST IOWA

CITY           SKY/WX    TMP DP  RH WIND       PRES   REMARKS
ATLANTIC *     CLOUDY    55  30  38 S21G28    29.62F
AUDUBON *      CLOUDY    54  28  37 S14G24    29.62F
CLARINDA *     SUNNY     61  28  29 SW21G28     N/A
COUNCIL BLFS * CLOUDY    55  28  35 SW22G29   29.62F
CRESTON *      SUNNY     59  27  29 SW26G37   29.67F
HARLAN  *      CLOUDY    55  27  33 S22       29.64F
LAMONI         SUNNY     59  27  29 S28G36    29.70F
RED OAK *      CLOUDY    59  28  31 SW22G33   29.65F
SHENANDOAH *   CLOUDY    59  27  29 S22G29    29.67F
$$

IAZ047>049-059>061-072>074-084-202000-
   CENTRAL IOWA

CITY           SKY/WX    TMP DP  RH WIND       PRES   REMARKS
AMES           SUNNY     59  30  33 SW23G32   29.61F
ANKENY *       SUNNY     61  28  29 SW15G23   29.64F
BOONE *        CLOUDY    57  28  33 SW17G28   29.59F
CHARITON *     SUNNY     61  27  27 SW24G39   29.68F
DES MOINES     PTSUNNY   61  25  25 S21G36    29.64F
GRINNELL*      SUNNY     58  29  32 S25G33    29.67F
KNOXVILLE *    SUNNY     61  25  25 SW22G36   29.66F
MARSHALLTOWN   CLOUDY    58  31  35 SW22G32   29.61F
NEWTON *       SUNNY     61  28  29 SW24G31   29.64F
PELLA *        SUNNY     60  26  27 SW18G32   29.69F
PERRY *          N/A     56  24  28 SW23G33   29.61F
$$

IAZ004>006-015-016-023>025-035-036-202000-
   NORTH CENTRAL IOWA

CITY           SKY/WX    TMP DP  RH WIND       PRES   REMARKS
ALGONA *       CLOUDY    50  30  46 SW24      29.53F
CLARION *      CLOUDY    55  32  41 S25G32    29.54F
ESTHERVILLE    MOSUNNY   48  29  47 SW14G24   29.51F
FORT DODGE *   CLOUDY    54  29  38 SW25      29.56F
MASON CITY     CLOUDY    53  29  39 SW21G30   29.55F
FOREST CITY *    N/A     52  32  46 SW15G25   29.53F
WEBSTER CITY * CLOUDY    57  30  35 MISG      29.55F
IOWA FALLS *     N/A     56  32  39 S18G26    29.60F
$$

IAZ007>011-017>019-026>030-037>042-050>054-066-202000-
   NORTHEAST IOWA

CITY           SKY/WX    TMP DP  RH WIND       PRES   REMARKS
CEDAR RAPIDS   SUNNY     59  29  31 SW21G29   29.67F
CHARLES CITY * CLOUDY    52  30  43 S17G26    29.59F
CLINTON *      SUNNY     56  32  40 SW22G30   29.74F
DECORAH *      CLOUDY    50  32  50 S14G26    29.58F
DUBUQUE        SUNNY     51  32  48 SW20G29   29.68F
MONTICELLO *   SUNNY     55  32  41 S18G28    29.68F
OELWEIN *      CLOUDY    52  34  50 S22G28    29.63F
WATERLOO       CLOUDY    55  30  38 S18       29.61F
$$

IAZ064-065-067-068-078-202000-
   EAST CENTRAL IOWA

CITY           SKY/WX    TMP DP  RH WIND       PRES   REMARKS
DAVENPORT      SUNNY     56  30  37 S22G30    29.76F
IOWA CITY      SUNNY     61  30  31 SW22G29   29.72F
MT. PLEASANT * SUNNY     58  32  36 S22G28    29.76F
MUSCATINE *    SUNNY     59  32  36 S23G30    29.74F
QUAD CITIES    SUNNY     57  31  37 SW20G29   29.75F
$$

IAZ062-063-075>077-085>089-095>099-202000-
   SOUTHEAST IOWA

CITY           SKY/WX    TMP DP  RH WIND       PRES   REMARKS
BURLINGTON     SUNNY     58  35  42 SW21G29   29.79F
FAIRFIELD *    SUNNY     59  28  31 SW25G35   29.73F
FORT MADISON * SUNNY     59  32  36 SW16G24   29.79F
KEOKUK *       SUNNY     59  32  36 SW18G31   29.80F
OSKALOOSA *      N/A     59  30  34 SW29G35   29.70F
OTTUMWA        SUNNY     61  29  29 SW22G35   29.71F
WASHINGTON *   SUNNY     61  30  31 SW24G36   29.72F
$$

ABBREVIATIONS USED IN REMARKS
   TC - TEMPERATURES IN CELSIUS
  WCI - WIND CHILL INDEX
   HX - HEAT INDEX
  VSB - VISIBILITY
$$





USA.gov is the U.S. government's official web portal to all federal, state and local government web resources and services.